Twin Falls, ID

3:06 AM MDT on August 26, 2016 (GMT -0600)
Joslin Field-Magic Valley Regional

Weather History for KTWF - September, 2013

Change the Weather History Date:

Monday, September 16, 2013

  Actual Average Record
Temperature  
Mean Temperature 75 °F -  
Max Temperature 87 °F 77 °F 90 °F (1998)
Min Temperature 63 °F 47 °F 37 °F (2006)
Degree Days  
Heating Degree Days 0 4  
Month to date heating degree days 0 46  
Since 1 July heating degree days 0 67  
Cooling Degree Days 10 2  
Month to date cooling degree days 95 50  
Year to date cooling degree days 1134 667  
Growing Degree Days 26 (Base 50)    
Moisture  
Dew Point 48 °F    
Average Humidity 42    
Maximum Humidity 63    
Minimum Humidity 21    
Precipitation  
Precipitation 0.02 in 0.02 in 0.12 in (2015)
Month to date precipitation 0.73 0.26  
Year to date precipitation 3.92 7.14  
Sea Level Pressure  
Sea Level Pressure 29.76 in    
Wind  
Wind Speed 8 mph (WSW)    
Max Wind Speed 16 mph    
Max Gust Speed 21 mph    
Visibility 10 miles    
Events Thunderstorm    
T = Trace of Precipitation, MM = Missing Value Source: NWS Daily Summary

Daily Weather History Graph

Daily Weather History Graph

Search for Another Location

Airport or City:

Trip Planner

Search our weather history database for the weather conditions in past years. The results will help you decide how hot, cold, wet, or windy it might be!

Date:

Astronomy

Sep. 16, 2013 Rise Set
Actual Time 7:19 AM MDT 7:45 PM MDT
Civil Twilight 6:51 AM MDT 8:13 PM MDT
Nautical Twilight 6:17 AM MDT 8:46 PM MDT
Astronomical Twilight 5:43 AM MDT 9:20 PM MDT
Moon 5:59 PM MDT (9/16) 4:07 AM MDT (9/16)
Length of Visible Light 13h 22m
Length of Day
12h 26m
Waxing Gibbous, 90% of the Moon is Illuminated
Sep 16
Waxing Gibbous
Sep 19
Full
Sep 26
Last Quarter
Oct 4
New
Oct 11
First Quarter

Hourly Weather History & Observations

Time (MDT) Temp. Dew Point Humidity Pressure Visibility Wind Dir Wind Speed Gust Speed Precip Events Conditions
12:53 AM 71.1 °F 52.0 °F 51% 29.74 in 10.0 mi East 8.1 mph - N/A   Clear
1:53 AM 70.0 °F 51.1 °F 51% 29.75 in 10.0 mi ESE 3.5 mph - N/A   Clear
2:53 AM 70.0 °F 50.0 °F 49% 29.74 in 10.0 mi Variable 4.6 mph - N/A   Clear
3:53 AM 72.0 °F 51.1 °F 48% 29.73 in 10.0 mi ESE 8.1 mph - N/A   Clear
4:53 AM 73.9 °F 52.0 °F 46% 29.75 in 10.0 mi ESE 8.1 mph 18.4 mph N/A   Scattered Clouds
5:45 AM 66.2 °F 55.4 °F 68% 29.95 in 10.0 mi Calm Calm - 0.02 in Thunderstorm Scattered Clouds
5:53 AM 68.0 °F 55.0 °F 63% 29.77 in 10.0 mi WNW 3.5 mph - 0.02 in Thunderstorm Partly Cloudy
6:00 AM 66.2 °F 55.4 °F 68% 29.95 in 10.0 mi West 9.2 mph - N/A   Clear
6:53 AM 64.9 °F 54.0 °F 68% 29.79 in 10.0 mi South 9.2 mph - N/A   Clear
7:53 AM 66.0 °F 54.0 °F 65% 29.80 in 10.0 mi South 11.5 mph - N/A   Clear
8:53 AM 72.0 °F 55.0 °F 55% 29.81 in 10.0 mi South 11.5 mph - N/A   Clear
9:53 AM 77.0 °F 52.0 °F 42% 29.83 in 10.0 mi SW 9.2 mph - N/A   Clear
10:53 AM 81.0 °F 45.0 °F 28% 29.82 in 10.0 mi NW 10.4 mph - N/A   Clear
11:53 AM 82.0 °F 44.1 °F 26% 29.81 in 10.0 mi NW 8.1 mph - N/A   Clear
12:53 PM 82.9 °F 44.1 °F 25% 29.80 in 10.0 mi NNW 9.2 mph - N/A   Clear
1:53 PM 84.0 °F 42.1 °F 23% 29.78 in 10.0 mi WNW 10.4 mph - N/A   Clear
2:53 PM 84.9 °F 41.0 °F 21% 29.75 in 10.0 mi NNW 10.4 mph - N/A   Clear
3:53 PM 86.0 °F 41.0 °F 20% 29.71 in 10.0 mi North 8.1 mph - N/A   Clear
4:53 PM 87.1 °F 42.1 °F 21% 29.68 in 10.0 mi NNW 5.8 mph - N/A   Clear
5:53 PM 84.9 °F 44.1 °F 24% 29.68 in 10.0 mi WNW 11.5 mph - N/A   Clear
6:53 PM 82.0 °F 44.1 °F 26% 29.68 in 10.0 mi NW 3.5 mph - N/A   Clear
7:53 PM 71.1 °F 45.0 °F 39% 29.69 in 10.0 mi Calm Calm - N/A   Clear
8:53 PM 66.9 °F 44.1 °F 44% 29.69 in 10.0 mi SE 5.8 mph - N/A   Clear
9:53 PM 66.0 °F 44.1 °F 45% 29.68 in 10.0 mi SSE 5.8 mph - N/A   Clear
10:53 PM 69.1 °F 44.1 °F 40% 29.67 in 10.0 mi South 10.4 mph - N/A   Partly Cloudy
11:53 PM 70.0 °F 48.0 °F 46% 29.65 in 10.0 mi SSW 11.5 mph - N/A   Clear